Flag for U.S.A. Weather past 2 weeks in French Lick, Indiana, U.S.A.

Now
55 °F

Clear.


Feels Like: 55 °F
Forecast: 56 / 82 °F
Wind: 3 mph from Southeast

Location: Huntingburg Airport

Current Time: Jul 25, 2014 at 5:15:08 AM

Latest Report: Jul 25, 2014 at 4:35 AM


Visibility: 9 mi

Pressure: 30.06 "Hg

Humidity: 88%

Dew point: 52 °F

Location of French LickLocation

Historic Weather in French Lick — Graph

°F

French Lick temperature yesterday

Maximum temperature yesterday: 79 °F (at 2:55 PM)
Minimum temperature yesterday: 61 °F (at 6:15 AM)
Average temperature yesterday: 70 °F

Past Weeks' High & Low Weather Summary

 TemperatureHumidityPressure
High91 °F (Jul 13, 2:15 PM)94% (Jul 16, 6:15 AM)30.22 "Hg (Jul 16, 6:15 AM)
Low54 °F (Jul 16, 5:35 AM)35% (Jul 11, 4:55 PM)29.85 "Hg (Jul 14, 3:55 PM)
Average72 °F71%30.06 "Hg
* Reported Jul 10 4:15 AM — Jul 25 4:15 AM, French Lick, Weather by CustomWeather, © 2014

Note: Actual official high and low records may vary slightly from our data, if they occured in-between our weather recording intervals... More about our weather records

Advertising

French Lick weather history for previous 24 hours

 ConditionsComfort  
Time TempWeatherWind HumidityBarometerVisibility
4:15 AM
Jul 25
55 °FClear.No wind88%30.07 "Hg7 mi
3:55 AM57 °FClear.No wind88%30.07 "Hg7 mi
3:35 AM57 °FClear.No wind88%30.07 "Hg9 mi
3:15 AM57 °FClear.No wind88%30.07 "Hg10 mi
2:55 AM57 °FClear.No wind88%30.06 "Hg10 mi
2:35 AM59 °FClear.3 mph82%30.05 "Hg10 mi
2:15 AM59 °FClear.3 mph82%30.05 "Hg10 mi
1:55 AM61 °FClear.3 mph77%30.05 "Hg10 mi
1:35 AM61 °FClear.No wind83%30.06 "Hg10 mi
1:15 AM61 °FClear.No wind83%30.05 "Hg10 mi
12:55 AM61 °FClear.No wind83%30.06 "Hg10 mi
12:35 AM61 °FClear.No wind83%30.06 "Hg10 mi
12:15 AM63 °FClear.No wind77%30.07 "Hg10 mi
11:55 PM
Jul 24
63 °FClear.No wind77%30.06 "Hg10 mi
11:35 PM63 °FClear.No wind77%30.07 "Hg10 mi
11:15 PM63 °FClear.3 mph77%30.07 "Hg10 mi
10:55 PM63 °FClear.5 mph77%30.07 "Hg10 mi
10:35 PM63 °FClear.5 mph77%30.07 "Hg10 mi
10:15 PM66 °FClear.3 mph68%30.07 "Hg10 mi
9:55 PM66 °FSunny.5 mph68%30.06 "Hg10 mi
9:35 PM68 °FSunny.6 mph64%30.05 "Hg10 mi
9:15 PM68 °FSunny.3 mph64%30.05 "Hg10 mi
8:55 PM70 °FSunny.5 mph64%30.05 "Hg10 mi
8:35 PM72 °FSunny.3 mph61%30.05 "Hg10 mi
8:15 PM73 °FSunny.5 mph57%30.05 "Hg10 mi
7:55 PM73 °FSunny.3 mph53%30.04 "Hg10 mi
7:35 PM75 °FSunny.5 mph50%30.04 "Hg10 mi
7:15 PM75 °FScattered clouds.7 mph47%30.03 "Hg10 mi
6:55 PM77 °FScattered clouds.9 mph47%30.02 "Hg10 mi
6:35 PM77 °FSunny.8 mph47%30.03 "Hg10 mi
6:15 PM75 °FScattered clouds.7 mph50%30.03 "Hg10 mi
5:55 PM79 °FPartly sunny.10 mph45%30.03 "Hg3 mi
5:35 PM79 °FScattered clouds.12 mph45%30.04 "Hg10 mi
4:55 PM79 °FScattered clouds.8 mph45%30.05 "Hg10 mi
4:35 PM79 °FPassing clouds.12 mph45%30.06 "Hg10 mi
4:15 PM79 °FPassing clouds.12 mph48%30.06 "Hg10 mi
3:55 PM79 °FPartly sunny.15 mph51%30.06 "Hg10 mi
3:35 PM79 °FScattered clouds.10 mph48%30.06 "Hg10 mi
3:15 PM77 °FPartly sunny.9 mph51%30.07 "Hg10 mi
2:55 PM79 °FPartly sunny.10 mph48%30.07 "Hg10 mi
2:35 PM77 °FPartly sunny.13 mph47%30.07 "Hg10 mi
2:15 PM77 °FPartly sunny.9 mph51%30.07 "Hg10 mi
1:55 PM77 °FScattered clouds.12 mph51%30.06 "Hg10 mi
1:35 PM75 °FBroken clouds.9 mph50%30.06 "Hg10 mi
1:15 PM75 °FBroken clouds.13 mph54%30.07 "Hg10 mi
12:55 PM75 °FScattered clouds.10 mph54%30.07 "Hg10 mi
12:35 PM75 °FScattered clouds.13 mph54%30.08 "Hg10 mi
12:15 PM75 °FSunny.10 mph54%30.08 "Hg10 mi
11:55 AM75 °FSunny.13 mph50%30.08 "Hg10 mi
11:35 AM73 °FSunny.13 mph57%30.09 "Hg10 mi
11:15 AM73 °FSunny.10 mph57%30.08 "Hg10 mi
10:55 AM72 °FSunny.13 mph61%30.08 "Hg10 mi
10:35 AM72 °FPassing clouds.10 mph65%30.08 "Hg10 mi
10:15 AM70 °FSunny.9 mph69%30.08 "Hg10 mi
9:55 AM70 °FScattered clouds.12 mph73%30.07 "Hg10 mi
9:35 AM68 °FPartly sunny.10 mph78%30.07 "Hg10 mi
9:15 AM66 °FPartly sunny.8 mph78%30.07 "Hg10 mi
8:55 AM64 °FPartly sunny.9 mph78%30.06 "Hg10 mi
8:35 AM63 °FSunny.10 mph83%30.06 "Hg10 mi
8:15 AM63 °FPassing clouds.8 mph83%30.05 "Hg10 mi
7:55 AM63 °FScattered clouds.7 mph83%30.05 "Hg10 mi
7:35 AM61 °FPassing clouds.7 mph83%30.04 "Hg10 mi
7:15 AM61 °FPassing clouds.6 mph83%30.03 "Hg10 mi
6:55 AM61 °FPartly cloudy.6 mph83%30.03 "Hg10 mi
6:35 AM61 °FPassing clouds.7 mph83%30.02 "Hg10 mi
6:15 AM61 °FPassing clouds.7 mph83%30.02 "Hg10 mi
5:55 AM63 °FPassing clouds.9 mph77%30.02 "Hg10 mi
5:35 AM63 °FMostly cloudy.9 mph77%30.02 "Hg10 mi
5:15 AM63 °FPassing clouds.10 mph77%30.01 "Hg10 mi
Weather by CustomWeather, © 2014

See weather overviewHow to use our weather pages